Weather History for Billings, MT

Change the Weather History Date:

Sunday, May 5, 2013

  Actual Average Record
Temperature  
Mean Temperature 52 °F 52 °F  
Max Temperature 68 °F 64 °F 84 °F (1936)
Min Temperature 36 °F 40 °F 26 °F (1967)
Degree Days  
Heating Degree Days 13 13  
Month to date heating degree days 80 68  
Since 1 July heating degree days 6172 6445  
Cooling Degree Days 0 0  
Month to date cooling degree days 0 0  
Year to date cooling degree days 0 1  
Growing Degree Days 2 (Base 50)    
Moisture  
Dew Point 30 °F    
Average Humidity 48    
Maximum Humidity 70    
Minimum Humidity 26    
Precipitation  
Precipitation 0.00 in 0.07 in 0.51 in (1978)
Month to date precipitation 0.02 0.32  
Year to date precipitation 2.18 4.00  
Snow  
Snow 0.00 in 0.10 in T in (1960)
Month to date snowfall T 0.6  
Since 1 July snowfall 40.4 53.6  
Snow Depth 0.00 in    
Sea Level Pressure  
Sea Level Pressure 30.12 in    
Wind  
Wind Speed 7 mph (NE)    
Max Wind Speed 15 mph    
Max Gust Speed 19 mph    
Visibility 10 miles    
Events      
T = Trace of Precipitation, MM = Missing Value Source: NWS Daily Summary

Daily Weather History Graph

Daily Weather History Graph

Search for Another Location

Airport:

Trip Planner

Search our weather history database for the weather conditions in past years. The results will help you decide how hot, cold, wet, or windy it might be!

Date:

Astronomy

May. 05, 2013 Rise Set
Actual Time 5:55 AM MDT 8:27 PM MDT
Civil Twilight 5:21 AM MDT 9:00 PM MDT
Nautical Twilight 4:39 AM MDT 9:43 PM MDT
Astronomical Twilight 3:51 AM MDT 10:31 PM MDT
Moon 3:40 AM MDT (5/5) 4:18 PM MDT (5/5)
Length of Visible Light 15h 39m
Length of Day
14h 32m
Waning Crescent, 17% of the Moon is Illuminated
May 5
Waning Crescent
May 9
New
May 17
First Quarter
May 24
Full
May 31
Last Quarter

Hourly Weather History & Observations

Time (MDT) Temp. Windchill Dew Point Humidity Pressure Visibility Wind Dir Wind Speed Gust Speed Precip Events Conditions
12:53 AM 42.1 °F 39.2 °F 33.1 °F 70% 30.24 in 10.0 mi NW 4.6 mph - N/A   Scattered Clouds
1:53 AM 42.1 °F 39.2 °F 30.9 °F 65% 30.23 in 10.0 mi North 4.6 mph - N/A   Scattered Clouds
2:53 AM 41.0 °F 39.0 °F 30.0 °F 65% 30.21 in 10.0 mi North 3.5 mph - N/A   Partly Cloudy
3:53 AM 41.0 °F 38.0 °F 28.9 °F 62% 30.21 in 10.0 mi North 4.6 mph - N/A   Clear
4:53 AM 37.9 °F 34.4 °F 28.0 °F 68% 30.21 in 10.0 mi North 4.6 mph - N/A   Partly Cloudy
5:53 AM 39.0 °F 34.0 °F 28.9 °F 67% 30.20 in 10.0 mi NNE 6.9 mph - N/A   Partly Cloudy
6:53 AM 43.0 °F 41.3 °F 30.0 °F 60% 30.20 in 10.0 mi NNE 3.5 mph - N/A   Partly Cloudy
7:53 AM 44.1 °F 40.8 °F 30.0 °F 58% 30.21 in 10.0 mi North 5.8 mph - N/A   Mostly Cloudy
8:53 AM 46.9 °F - 34.0 °F 61% 30.21 in 10.0 mi Calm Calm - N/A   Mostly Cloudy
9:53 AM 52.0 °F - 36.0 °F 54% 30.19 in 10.0 mi East 5.8 mph - N/A   Scattered Clouds
10:53 AM 57.0 °F - 35.1 °F 44% 30.17 in 10.0 mi ENE 6.9 mph - N/A   Clear
11:53 AM 60.8 °F - 33.8 °F 36% 30.16 in 10.0 mi East 9.2 mph - N/A   Clear
12:53 PM 62.1 °F - 28.9 °F 29% 30.13 in 10.0 mi East 8.1 mph - N/A   Partly Cloudy
1:53 PM 64.9 °F - 30.0 °F 27% 30.10 in 10.0 mi East 12.7 mph 17.3 mph N/A   Partly Cloudy
2:53 PM 64.9 °F - 30.9 °F 28% 30.08 in 10.0 mi South 10.4 mph - N/A   Partly Cloudy
3:53 PM 66.0 °F - 30.0 °F 26% 30.06 in 10.0 mi Variable 3.5 mph - N/A   Scattered Clouds
4:53 PM 66.0 °F - 30.0 °F 26% 30.05 in 10.0 mi Variable 4.6 mph - N/A   Scattered Clouds
5:53 PM 64.0 °F - 28.9 °F 27% 30.04 in 10.0 mi East 12.7 mph - N/A   Scattered Clouds
6:53 PM 64.9 °F - 28.0 °F 25% 30.01 in 10.0 mi East 8.1 mph - N/A   Partly Cloudy
7:53 PM 62.1 °F - 28.9 °F 29% 30.01 in 10.0 mi East 9.2 mph - N/A   Partly Cloudy
8:53 PM 59.0 °F - 28.0 °F 31% 30.02 in 10.0 mi East 6.9 mph - N/A   Partly Cloudy
9:53 PM 55.0 °F - 28.9 °F 37% 30.03 in 10.0 mi NNE 6.9 mph - N/A   Clear
10:53 PM 53.1 °F - 28.0 °F 38% 30.03 in 10.0 mi NE 9.2 mph - N/A   Clear
11:53 PM 48.9 °F - 27.0 °F 43% 30.02 in 10.0 mi North 8.1 mph - N/A   Clear